Regional Weather Roundup
Issued by NWS Kansas City/Pleasant Hill, MO

Home | Current Version | Previous Version | Graphics & Text | Print | Product List | Glossary Off
Versions: 1 2 3 4 5 6 7 8 9 10 11 12 13 14 15 16 17 18 19 20 21 22 23 24 25 26 27 28 29 30 31 32 33 34 35 36 37 38 39 40 41 42 43 44 45 46 47 48 49 50

000
ASUS43 KEAX 272304
RWREAX

WEATHER ROUNDUP FOR EASTERN KANSAS AND NORTHWEST MISSOURI
NATIONAL WEATHER SERVICE KANSAS CITY/PLEASANT HILL MO
500 PM CST TUE JAN 27 2015

KSZ040-057-103>105-MOZ028-029-037-043-280000-
...KANSAS CITY METROPOLITAN AREA...

CITY           SKY/WX    TMP DP  RH WIND       PRES   REMARKS
K.C. INTL      CLEAR     54  31  41 SE10      30.08S
K.C. DOWNTOWN  CLEAR     57  31  37 SE7       30.08S
LEES SUMMIT    CLEAR     54  31  41 SE5       30.10S
OLATHE - IXD   CLEAR     55  33  43 SE10      30.08S
OLATHE - OJC   CLEAR     55  32  41 SE8       30.08R
LAWRENCE       CLEAR     56  33  42 SE9       30.07S

$$

MOZ001>008-011>017-020>025-030>033-038>040-044>046-053-054-280000-
...NORTHERN AND CENTRAL MISSOURI...

CITY           SKY/WX    TMP DP  RH WIND       PRES   REMARKS
ST. JOSEPH     CLEAR     53  30  41 SE12      30.07F
MOSBY          CLEAR     52  30  43 E7        30.10S
WARRENSBURG    CLEAR     52  30  43 E5        30.11S
WHITEMAN AFB   CLEAR     51  32  47 E6        30.11F
CLINTON        CLEAR     55  32  41 SE3       30.12S
SEDALIA        CLEAR     50  32  50 E6        30.14S
WARSAW         NOT AVBL
MARSHALL       CLEAR     54  34  47 E6        30.15S
CHILLICOTHE      N/A     48  33  56 SE6       30.14F
MOBERLY        CLEAR     48  32  53 CALM      30.16R
KIRKSVILLE     CLEAR     41  32  70 SE5       30.16R

$$

MOZ041-047>049-056>058-063>065-088>090-097-280000-
...EASTERN AND SOUTHERN MISSOURI...

CITY           SKY/WX    TMP DP  RH WIND       PRES   REMARKS
ST. LOUIS INTL PTCLDY    43  29  57 NE6       30.19
SPIRIT OF STL  CLEAR     43  31  62 NE8       30.18R
COLUMBIA       CLEAR     47  33  58 E6        30.15R
JEFFERSON CITY CLEAR     50  32  50 SE3       30.16R
MEXICO         CLEAR     46  39  76 E6        30.16R
HANNIBAL       CLEAR     39  30  70 NE5       30.19R
ROLLA          CLEAR     48  31  51 NE5       30.13R
LEBANON        CLEAR     54  28  37 NE5       30.13R
OSAGE BEACH    CLEAR     52  30  43 NE3       30.14R
SPRINGFIELD    CLEAR     58  26  29 CALM      30.11S
BRANSON        CLEAR     61  25  25 NW5       30.13R
NEVADA         CLEAR     57  32  38 S3        30.10F
JOPLIN         CLEAR     63  27  25 CALM      30.10S
WEST PLAINS    CLEAR     56  28  34 NE3       30.12R

$$

IAZ060-094-KSZ022-034>040-054-083-096-NEZ052-066-093-280000-
...KANSAS...SOUTHEAST NEBRASKA AND IOWA...

CITY           SKY/WX    TMP DP  RH WIND       PRES   REMARKS
TOPEKA         CLEAR     58  32  37 SE12      30.05S
MANHATTAN      CLEAR     63  35  35 S7        29.99F
EMPORIA        CLEAR     61  34  36 SE13      30.03S
CHANUTE        CLEAR     61  35  37 SE9       30.07F
WICHITA        PTCLDY    71  36  27 S13       30.00F
OMAHA          PTCLDY    52  31  44 SE14      30.04S
LINCOLN        CLEAR     57  32  38 SE13      30.01S
FALLS CITY     CLEAR     53  31  42 SE9       30.04F
LAMONI         CLEAR     47  30  51 SE5       30.10S
DES MOINES     PTCLDY    43  31  62 SE10      30.13S

$$



USA.gov is the U.S. government's official web portal to all federal, state and local government web resources and services.